Location: Newark
(38.0892°N, 27.7378°E)
Time: 06:29:21
(UTC+00:00)

N. Korean satellite - Pass Details

Date: 15 December 2019
Orbit: 454 x 507 km, 97.2° (Epoch: 27 January)

Event Time Altitude Azimuth Distance (km) Brightness Sun altitude
Rises 04:27:34 0° 1° (N) 2,519 10.0 -9.7°
Reaches altitude 10° 04:29:46 10° 352° (N) 1,629 8.9 -9.3°
Maximum altitude 04:32:55 33° 287° (WNW) 798 7.1 -8.8°
Drops below altitude 10° 04:36:02 10° 222° (SW) 1,597 9.0 -8.2°
Sets 04:38:10 0° 212° (SSW) 2,461 10.1 -7.8°
